Temp
28 28 28 28 28 27 27 27 27 27 27 27 27 27 27 27 26 26 26 26 26 25 25 24 24 23 23 23 23 23 22 22 22 22 22 22 22 22 22 22 22 22 22 22 22 22 23 22 22 22 22 22 22 21 21 21 21 21 21 21 21 20 20 20 20 20 20 21 21 21 21 21 21 21 21 21 21 20 20 20 20 19 19 19 20
28 28 28 28 28 28 27 27 27 27 27 27 27 27 27 27 26 26 26 26 25 25 24 24 24 23 23 23 23 23 22 22 22 22 22 22 22 22 22 23 22 22 22 22 22 22 22 22 22 22 22 22 22 22 21 21 21 21 21 21 21 21 21 21 21 20 20 21 21 21 21 21 21 21 21 21 21 21 21 20 20 20 20 20 20
28 28 28 28 28 28 27 27 27 27 27 27 27 27 27 27 26 26 26 26 25 25 24 24 24 23 23 23 23 23 22 22 22 22 22 22 22 22 22 23 22 22 22 22 22 22 22 22 22 22 22 22 22 22 21 22 22 21 21 21 21 21 21 21 21 21 20 21 21 21 21 21 21 21 21 21 21 21 21 21 21 20 20 20 20
29 28 28 28 28 28 28 28 27 27 27 27 27 27 27 27 26 26 26 26 25 25 24 24 24 23 23 23 23 23 23 22 22 22 22 22 22 22 22 22 22 22 22 22 22 22 22 22 22 22 22 22 22 22 22 22 22 22 21 21 21 21 21 21 21 21 20 20 20 20 20 20 20 20 20 20 20 20 20 21 21 21 20 20 20
30 29 28 28 28 28 28 28 28 27 27 27 27 28 27 27 27 26 26 26 25 25 24 24 24 23 23 23 23 23 23 22 22 22 22 22 22 22 22 22 22 22 22 22 22 22 22 22 22 22 22 22 22 22 22 22 22 21 21 21 21 21 21 21 21 21 20 20 20 20 20 20 20 20 20 20 20 20 20 20 21 21 21 20 20
31 29 29 29 28 28 28 28 28 28 28 28 28 28 28 27 27 26 26 26 25 25 24 24 24 24 23 23 23 23 23 22 22 22 22 22 22 22 22 22 22 22 22 22 22 22 22 22 22 22 22 22 22 22 22 22 22 21 21 21 21 21 21 21 21 21 21 20 20 20 20 20 20 20 20 20 20 20 20 20 20 20 20 20 20
31 30 29 29 29 28 28 28 28 28 28 28 28 28 28 28 28 27 26 26 25 25 24 24 24 24 23 23 23 23 23 22 22 22 22 22 22 22 22 22 22 22 22 22 22 22 22 22 22 22 22 22 22 22 22 22 22 22 21 21 21 21 21 21 21 21 20 20 20 20 20 20 20 20 20 21 20 20 20 20 20 20 20 20 20
32 30 30 30 29 29 28 28 28 28 28 28 28 28 29 29 28 27 26 26 26 25 25 24 24 24 23 23 23 23 23 22 22 22 22 22 22 22 22 22 22 22 22 22 22 22 22 22 22 22 22 22 22 22 22 22 22 22 21 21 21 21 21 21 20 20 20 20 20 20 20 20 20 20 20 20 20 20 20 20 20 20 20 20 20
32 31 30 30 29 29 29 28 28 28 28 28 28 28 29 29 28 27 27 26 26 26 25 24 24 23 23 23 23 22 22 22 22 22 22 22 22 22 22 22 22 22 22 22 22 22 23 23 23 23 23 23 23 23 22 22 22 22 22 21 21 21 21 20 20 20 20 20 20 19 19 19 20 20 20 20 20 20 20 20 20 20 20 20 20
33 32 30 30 30 29 29 28 28 28 28 28 28 28 28 28 28 28 27 27 27 27 25 24 23 23 23 23 23 22 22 22 22 22 22 22 22 22 22 22 22 22 22 22 22 23 23 23 23 23 23 23 23 23 23 22 22 22 22 22 21 21 21 20 20 20 20 20 19 19 19 19 20 20 20 20 20 20 21 20 20 20 20 19 19
33 32 31 30 30 29 29 28 28 28 28 28 28 28 28 28 28 28 27 27 27 26 25 24 24 23 23 23 22 22 22 22 22 22 22 22 22 22 22 22 22 22 22 22 22 22 23 23 23 23 23 23 23 23 23 23 22 22 22 22 21 21 21 20 20 20 20 20 20 19 19 19 20 20 20 20 20 20 20 20 20 20 19 19 18
32 32 31 30 30 29 28 28 28 27 28 28 27 27 28 28 28 28 27 27 27 26 25 24 24 23 23 23 22 22 22 22 22 22 22 22 22 22 22 22 22 22 22 22 22 22 22 23 23 23 23 23 23 23 23 23 22 22 22 21 21 21 21 20 20 20 20 20 20 20 20 20 20 20 20 20 20 20 19 19 19 19 19 18 18
32 31 31 30 30 29 28 28 27 27 27 27 27 27 27 27 28 28 27 26 26 26 25 25 24 24 23 23 23 23 22 22 22 22 22 22 22 22 22 22 22 22 22 22 22 22 22 23 23 23 23 23 23 23 23 22 22 22 21 21 21 21 21 20 20 20 20 20 19 19 19 20 20 20 20 19 19 19 18 18 18 18 18 18 18
32 31 30 30 29 28 27 27 27 27 27 27 27 27 26 27 27 27 27 26 26 26 25 25 24 24 24 23 23 23 22 22 22 22 22 22 22 22 22 22 22 22 22 22 22 22 22 23 23 23 22 22 22 22 22 22 22 22 21 21 21 20 20 20 20 20 20 19 19 18 18 18 18 19 19 18 18 18 18 17 17 17 17 17 18
31 31 30 29 28 28 27 27 26 26 26 26 26 26 26 26 26 26 26 26 25 25 25 25 25 24 24 23 23 23 22 22 22 21 22 22 22 22 22 22 21 21 22 22 22 22 22 22 22 23 22 22 22 22 22 22 21 21 21 20 20 20 20 20 19 19 19 19 18 18 17 17 18 18 18 18 18 17 17 17 17 17 17 17 17
31 30 29 28 27 27 27 26 26 26 26 26 26 26 26 26 25 26 26 25 25 25 25 25 25 25 24 24 23 23 22 22 22 21 21 21 21 22 22 21 21 21 21 22 22 22 22 22 22 21 21 21 22 21 21 21 21 21 20 20 20 19 19 19 19 19 19 18 18 18 18 18 17 17 17 17 17 17 17 17 17 17 17 17 17
30 29 28 28 27 26 26 26 26 26 26 26 26 25 25 25 25 25 25 25 24 24 24 25 24 24 24 24 23 23 22 22 21 21 21 21 21 22 22 21 21 21 21 21 21 21 21 21 21 20 19 20 21 21 21 21 21 20 20 19 19 19 19 19 19 19 19 18 18 18 18 17 17 17 17 17 17 17 17 17 16 16 16 16 16
29 29 28 28 27 27 27 26 26 26 26 26 25 25 25 25 25 25 25 25 24 24 24 24 24 24 24 23 23 22 22 21 21 21 21 22 22 22 21 21 20 20 21 21 21 21 21 21 20 20 20 20 21 21 21 20 20 20 19 19 18 19 19 19 19 18 18 17 17 17 17 17 17 17 17 17 18 18 17 17 16 16 16 16 16
29 29 28 28 27 27 26 26 26 26 26 26 25 25 25 25 25 25 24 25 25 24 24 24 24 24 23 23 23 22 21 21 21 21 21 21 22 21 21 20 20 20 20 21 21 21 21 21 21 21 21 20 20 21 21 20 20 19 19 18 18 18 18 19 18 18 17 17 17 17 17 17 18 18 18 18 18 17 17 17 16 16 16 16 16
29 28 28 28 27 27 26 26 26 26 25 25 25 25 25 25 25 25 24 25 25 24 24 24 23 23 23 23 22 22 22 21 21 20 21 21 21 21 20 20 20 20 20 20 21 21 21 21 21 21 21 21 20 21 20 20 19 19 18 18 17 18 18 18 17 17 17 17 17 17 17 17 18 18 17 18 17 17 17 16 16 15 15 16 16
28 28 28 27 27 26 26 26 26 26 25 25 25 25 25 25 25 25 24 24 24 23 23 23 22 22 22 22 21 21 21 20 20 21 22 22 21 20 20 20 20 20 20 20 20 21 21 21 21 21 21 21 21 20 20 19 19 18 18 17 17 17 17 17 17 17 17 17 17 17 17 17 18 18 17 17 17 16 16 16 16 16 16 16 16
28 28 27 27 26 26 26 25 25 25 25 25 25 25 25 25 25 25 24 24 23 23 23 23 22 22 21 21 21 21 20 20 21 22 22 21 20 19 19 20 20 20 20 20 20 21 22 22 21 20 20 21 20 20 19 19 18 18 18 17 17 17 17 16 16 16 16 16 17 17 17 17 17 18 17 17 16 17 17 17 17 17 17 16 16
27 27 27 26 26 26 25 25 25 25 25 25 25 25 25 25 24 24 24 23 23 23 23 23 22 22 22 22 22 21 21 21 22 22 21 20 20 20 20 20 20 20 20 20 21 21 21 20 20 20 20 20 19 19 19 18 18 18 17 17 17 16 16 16 16 16 16 16 16 16 17 17 17 17 16 16 17 17 17 17 16 16 17 17 16
26 26 26 26 26 26 25 25 25 25 25 25 24 24 24 24 24 24 23 23 23 23 22 22 22 22 23 22 21 21 21 21 21 21 21 21 21 21 21 21 21 20 20 20 20 20 20 19 19 19 19 19 19 18 18 17 17 17 17 17 16 16 16 16 16 15 15 16 16 16 16 16 16 16 16 17 17 17 16 16 16 16 16 16 16
26 26 26 26 26 25 25 25 25 25 24 24 24 24 24 24 23 23 23 22 22 22 22 22 22 22 22 21 20 19 20 20 20 20 21 21 21 21 20 20 20 20 20 19 19 19 19 19 19 18 18 18 18 17 17 17 16 16 16 16 16 16 16 16 15 15 15 16 16 16 16 16 16 17 17 17 16 16 16 16 16 16 16 16 16
26 26 26 26 26 25 25 25 24 24 24 24 23 23 23 23 22 22 22 22 22 22 22 21 21 21 20 19 19 18 19 20 20 20 20 20 20 20 20 20 20 19 19 18 18 18 18 18 18 18 18 17 17 16 16 16 16 16 15 15 16 16 16 15 15 15 15 16 16 16 16 16 17 17 16 16 16 16 16 16 16 16 16 15 15
26 26 26 25 25 25 25 24 24 23 23 23 23 22 22 22 22 22 22 22 21 21 21 21 21 20 19 19 18 18 19 19 19 20 20 19 19 19 19 19 19 19 19 18 18 18 18 18 18 18 17 17 17 16 15 15 15 15 15 15 16 16 16 16 16 16 16 16 16 16 16 16 16 16 16 16 16 16 16 16 16 15 15 15 15
25 25 25 25 25 25 24 24 23 22 22 22 22 22 22 22 22 22 22 22 21 21 20 20 20 20 19 18 18 18 18 18 19 19 19 18 18 18 18 19 19 19 19 19 19 18 18 18 18 17 17 17 16 16 15 15 15 15 15 16 16 16 16 16 16 16 16 16 16 16 16 16 16 16 16 16 16 16 16 15 15 15 15 15 15
25 25 25 24 24 24 24 23 22 21 21 21 20 20 20 21 21 21 21 21 21 21 21 20 20 20 19 19 18 17 17 17 18 18 18 18 18 19 19 19 19 20 19 19 19 19 18 18 18 17 16 17 17 17 17 16 16 16 16 17 16 16 17 17 17 17 17 16 16 16 16 16 16 16 16 16 16 16 15 15 15 15 15 15 14
25 25 25 24 24 24 23 22 21 20 20 19 19 19 19 19 20 20 20 20 20 21 21 20 20 20 20 19 19 19 18 18 18 18 18 19 19 19 19 19 19 19 19 19 19 19 19 18 19 18 18 19 19 18 18 17 17 17 17 17 17 17 17 17 17 17 17 17 17 16 16 16 16 16 15 15 15 15 15 15 15 15 15 15 15
25 26 26 25 24 24 22 21 20 20 19 18 18 18 17 18 19 19 19 19 20 20 20 20 20 20 20 20 19 19 19 19 19 18 18 18 18 18 18 18 18 19 19 19 19 19 19 19 20 20 20 20 20 19 19 18 18 17 17 17 17 17 17 17 17 17 17 17 16 16 16 16 15 15 15 15 15 15 15 15 15 15 15 15 15
26 26 26 25 24 23 21 20 20 19 19 18 18 17 17 16 16 17 17 18 19 20 20 20 20 20 20 20 19 19 19 19 19 19 19 18 18 18 18 18 19 19 19 19 18 18 18 19 19 20 20 20 20 20 19 18 18 18 18 18 18 18 18 18 17 17 16 16 16 16 16 15 15 15 15 15 15 15 15 15 15 15 15 15 15
26 25 25 24 24 22 21 20 20 20 19 19 18 18 18 17 15 15 15 16 17 18 19 19 19 19 19 19 19 19 19 19 18 18 18 18 18 18 18 19 19 19 18 18 18 18 18 19 20 20 20 20 20 20 19 19 18 18 18 18 18 18 18 17 17 16 16 16 16 15 15 15 15 15 15 15 15 15 15 15 15 15 15 15 15
25 24 24 24 23 21 21 20 20 20 20 20 19 19 19 19 17 15 15 15 16 16 17 17 18 18 18 18 19 19 19 18 18 18 18 18 18 19 19 19 18 18 18 18 18 18 19 19 20 20 20 20 19 19 19 18 18 18 18 18 18 18 17 16 16 16 16 16 16 15 15 15 15 15 15 15 15 15 15 15 15 15 15 15 15
24 24 24 23 22 22 21 21 21 21 20 20 20 20 20 20 18 17 17 17 17 16 15 15 16 17 17 18 18 18 18 18 18 18 18 18 18 18 18 18 17 17 17 17 17 18 18 19 19 19 19 19 18 18 17 17 17 17 17 17 17 17 16 16 15 15 15 15 15 15 14 14 14 15 15 15 15 15 15 15 15 15 15 15 15
25 24 24 23 23 23 22 22 22 21 21 21 21 21 21 20 19 18 18 19 18 17 15 14 15 16 16 17 17 17 17 17 18 18 18 18 18 18 17 17 17 17 17 17 17 18 18 18 19 18 18 18 17 17 17 17 17 17 17 17 17 17 16 16 15 14 14 14 14 14 14 14 14 15 15 15 15 15 15 15 15 15 15 15 15
24 24 24 24 23 23 23 22 22 21 21 22 22 22 21 21 20 20 20 20 19 17 15 13 14 14 14 15 16 16 16 17 17 17 17 17 17 17 16 16 17 18 18 18 18 18 18 18 18 18 17 17 17 17 17 17 17 16 17 17 16 16 16 15 14 14 14 14 13 13 14 14 15 15 15 15 15 15 15 15 15 15 15 15 15
24 24 24 24 24 23 23 22 22 22 22 22 22 22 22 22 22 22 21 20 19 17 15 15 15 14 14 14 15 16 16 16 16 16 16 16 16 16 16 17 17 18 18 19 19 18 18 18 17 17 17 17 17 16 16 16 16 16 16 16 16 16 15 14 14 14 14 13 13 14 14 15 15 15 15 15 15 15 15 15 14 15 15 15 15
24 24 24 24 23 23 23 22 22 22 22 22 22 22 22 22 22 22 21 20 19 18 17 17 17 16 15 14 14 15 15 15 15 15 15 15 16 16 16 17 17 18 19 19 18 18 18 18 17 17 16 16 16 16 15 15 15 15 15 15 16 15 15 14 14 14 14 14 14 14 14 14 15 14 14 14 14 14 14 14 14 15 15 15 15
23 23 23 23 23 23 22 22 22 22 22 22 22 22 22 22 22 21 21 20 20 19 18 18 18 17 16 15 15 15 15 16 16 16 16 16 16 16 17 17 18 18 19 18 18 18 17 17 17 16 16 16 16 15 15 15 15 15 15 15 15 15 14 14 14 15 15 15 14 14 14 14 14 14 14 14 14 14 14 14 15 15 15 15 15
23 23 23 23 22 22 22 22 22 22 22 22 22 22 22 21 21 21 21 20 20 20 19 19 19 18 17 17 17 16 16 17 17 17 17 17 17 17 17 18 18 18 18 18 18 17 17 17 16 16 16 16 16 15 15 15 15 15 15 15 14 14 14 14 14 15 15 14 14 14 14 14 14 14 14 14 14 14 14 14 14 15 15 15 15
23 23 23 23 22 22 23 23 22 22 22 22 22 22 21 21 21 21 21 20 20 20 19 19 18 18 17 17 17 17 17 17 18 18 18 17 17 18 18 18 18 18 18 18 17 17 17 17 16 16 16 16 16 15 15 15 15 15 15 14 14 14 14 14 14 15 14 14 14 14 14 13 13 13 13 14 14 14 14 14 14 14 14 14 14
23 23 23 23 23 23 23 23 22 22 22 22 22 21 22 22 22 21 21 21 21 20 19 17 17 17 16 17 17 17 17 17 18 18 18 18 18 18 18 18 18 17 17 17 17 17 16 16 16 16 16 16 16 16 16 15 15 15 14 14 14 14 14 14 14 14 14 14 14 13 13 13 13 13 13 13 14 14 14 14 14 14 14 14 14
23 23 23 23 23 22 22 22 22 22 22 22 22 21 22 22 22 22 21 21 21 21 19 17 16 16 16 16 16 16 16 17 18 18 18 18 18 18 18 18 18 17 17 17 17 17 16 16 16 16 16 16 15 15 15 14 14 13 13 13 13 13 14 14 14 14 13 13 13 13 13 13 13 13 13 13 13 13 13 14 14 14 14 14 14
23 22 22 22 22 21 21 21 21 21 21 21 21 21 21 21 21 21 21 21 21 21 19 17 17 17 16 16 16 16 17 18 18 18 18 18 18 18 18 18 17 17 17 17 17 16 16 16 15 16 15 15 15 14 14 13 13 13 13 13 13 13 13 13 13 13 12 12 12 12 12 12 12 12 12 13 13 13 13 13 13 14 14 14 14
22 22 22 22 21 21 21 21 21 21 21 21 21 21 21 21 21 21 21 21 21 21 19 18 18 17 17 17 18 18 18 18 18 18 18 18 18 18 18 18 17 17 17 17 16 16 15 15 15 15 15 14 14 13 13 12 12 12 12 12 12 12 12 12 12 11 11 11 11 11 11 11 11 12 12 12 13 13 13 13 13 14 14 13 14
22 22 22 21 21 20 20 20 21 21 21 21 21 21 21 21 21 21 21 20 20 20 20 19 18 18 18 18 18 18 18 18 18 18 18 18 18 18 18 18 17 17 16 16 16 16 15 15 15 14 14 14 13 13 12 12 12 12 12 12 12 12 12 11 11 11 11 10 10 10 10 10 11 11 12 12 12 12 13 13 13 13 13 13 13
21 21 21 21 21 20 20 20 20 20 20 20 20 20 21 20 20 20 20 20 20 20 20 19 19 19 18 18 18 18 18 18 18 18 18 18 18 19 19 18 18 17 16 16 16 16 15 15 14 14 14 13 13 12 12 12 12 12 12 12 11 11 11 11 11 11 11 10 10 10 9 10 10 11 11 12 12 12 13 13 13 13 13 13 14
21 21 21 21 21 21 20 20 20 20 20 19 20 20 20 20 20 20 20 20 20 20 20 19 19 19 19 18 18 18 18 18 18 18 18 18 18 18 18 18 17 17 16 16 16 15 15 15 14 14 14 13 13 12 12 12 12 12 12 11 11 11 11 11 11 10 10 10 10 9 9 9 9 10 11 11 12 12 12 12 12 12 13 13 14
21 21 20 20 20 20 20 20 21 20 20 19 19 20 20 20 20 20 20 20 20 20 20 20 20 20 19 19 19 19 19 18 18 18 18 18 18 18 18 18 17 17 16 16 16 15 15 14 14 14 14 13 13 12 12 12 12 12 11 11 11 11 11 10 10 10 10 10 9 9 9 9 9 9 10 11 12 12 12 12 12 12 13 13 14
20 20 20 19 19 19 19 20 20 19 19 19 20 20 20 20 20 20 20 20 20 20 20 20 20 20 20 19 19 19 19 19 19 18 18 18 18 18 18 18 17 17 16 16 16 15 15 14 14 14 13 13 13 12 12 12 12 12 11 11 11 11 10 10 10 10 9 9 9 9 9 9 9 9 10 11 11 12 12 12 12 12 13 14 14
Height
737 739 742 747 750 753 756 758 760 762 765 767 769 772 774 776 779 781 783 785 787 789 791 793 796 798 801 803 805 806 808 809 811 812 813 814 816 818 818 818 818 819 820 822 823 824 825 826 826 827 827 827 828 828 829 829 829 829 829 830 830 830 830 830 830 828 828 828 828 827 827 827 826 825 825 825 825 825 824 823 823 823 822 821 821
731 735 739 743 745 748 751 754 756 759 761 764 766 768 771 773 776 778 780 782 784 785 788 790 793 796 798 800 802 804 805 807 808 809 811 812 813 815 816 816 816 816 818 820 821 822 823 824 824 825 825 826 826 827 827 827 828 827 828 828 828 828 828 828 828 827 826 825 826 825 825 825 824 824 824 823 823 823 822 821 821 820 820 819 819
727 731 735 738 740 743 746 749 752 755 757 760 762 765 767 770 772 775 776 778 780 783 785 787 789 792 795 798 800 801 803 804 805 806 807 809 810 812 814 815 815 815 815 817 819 820 821 822 822 823 824 824 824 825 825 825 826 826 826 826 826 826 826 826 826 825 824 823 823 823 823 823 822 822 822 821 821 821 820 820 819 818 818 818 817
723 727 730 733 736 739 742 744 747 750 753 755 758 761 763 766 768 771 773 775 777 779 782 784 786 789 792 795 797 798 799 800 802 802 803 805 807 809 811 812 812 812 813 814 816 818 819 820 821 821 822 822 822 823 823 823 823 824 824 824 824 824 824 824 824 823 822 821 821 821 821 821 820 820 820 819 819 819 818 818 817 816 816 816 815
719 722 725 728 731 734 737 740 743 745 748 751 754 757 759 761 764 766 769 772 774 776 779 781 783 785 788 789 791 793 795 797 798 799 800 802 804 806 808 809 810 810 811 812 814 816 817 818 818 819 819 820 820 820 820 821 821 822 822 822 822 822 822 822 822 822 821 820 819 819 819 819 818 818 817 817 816 816 816 816 815 814 814 813 813
714 717 720 723 726 729 732 735 738 740 743 747 750 753 755 757 759 762 765 768 770 772 774 777 779 781 783 785 786 788 791 794 795 796 797 799 801 803 804 806 807 808 809 810 812 814 815 816 816 817 817 817 818 818 818 819 819 819 820 820 820 820 820 820 820 820 820 819 818 818 817 817 816 816 815 815 814 813 813 813 813 812 812 811 810
709 712 715 717 720 724 727 730 733 736 739 742 745 748 751 753 756 758 762 765 767 769 771 772 774 777 779 781 783 785 787 789 792 793 795 796 798 801 802 804 805 806 807 808 810 811 812 813 814 814 815 815 815 816 816 817 817 817 817 818 818 818 818 818 818 818 818 817 817 816 815 815 814 814 813 813 812 811 811 810 810 809 809 808 808
704 707 710 713 716 719 722 725 729 732 735 738 741 744 747 750 752 755 758 761 763 766 768 768 770 773 775 777 779 782 784 786 788 791 792 793 795 798 799 801 802 803 805 806 807 808 809 810 811 811 812 812 813 813 813 814 815 815 815 815 816 816 816 816 816 816 815 815 814 814 813 813 812 812 812 811 810 809 808 808 807 806 806 805 805
699 702 705 708 711 714 718 722 725 728 732 734 738 741 743 747 749 751 754 756 758 761 764 765 766 768 771 773 775 778 780 782 784 786 788 790 791 793 795 797 799 801 802 803 805 806 807 808 808 809 809 809 810 810 810 811 812 812 812 813 813 813 813 814 814 813 813 813 812 812 812 811 810 810 809 808 807 807 806 806 804 803 803 802 802
695 698 701 704 708 711 715 718 721 725 728 731 734 737 740 743 746 747 750 752 754 756 759 762 763 764 766 769 771 773 775 777 779 782 784 786 788 790 791 794 796 798 800 801 802 804 805 806 806 806 807 807 807 807 808 808 809 809 810 810 811 811 811 811 811 811 811 810 810 810 809 809 808 808 807 806 805 805 804 803 802 801 801 800 799
690 694 697 701 705 708 712 715 718 721 724 727 731 734 737 740 743 745 746 748 751 752 754 757 759 761 763 765 767 769 770 772 774 778 781 783 785 787 790 792 793 795 798 799 800 801 802 803 803 804 804 804 805 805 805 806 806 807 807 807 808 809 809 809 809 809 809 808 808 808 807 805 805 805 804 804 803 802 802 801 800 800 799 798 796
686 690 693 698 702 705 709 712 716 719 722 725 728 731 735 737 740 741 742 744 747 749 751 754 757 759 760 762 764 765 767 769 771 775 779 782 784 785 787 789 790 792 794 796 797 798 799 800 801 802 802 802 803 803 803 803 803 804 804 805 805 806 806 806 806 806 806 806 805 805 804 802 802 802 802 801 800 800 799 799 799 798 797 797 795
682 686 690 695 699 702 707 710 713 717 719 723 726 729 732 735 736 738 740 742 746 748 751 753 755 757 758 760 762 763 765 766 768 773 778 781 783 783 784 786 788 790 791 793 795 796 797 798 799 799 800 800 801 801 801 801 801 801 802 802 802 802 803 803 803 804 804 803 802 801 800 800 799 798 799 798 798 797 797 796 796 796 795 794 793
680 684 688 692 696 700 705 708 712 715 718 721 724 727 730 732 734 737 739 742 745 748 751 753 754 756 757 759 761 762 763 763 767 773 777 778 781 783 783 785 787 788 791 792 794 795 795 796 797 797 798 798 799 799 799 799 800 799 799 799 799 799 799 800 800 801 800 800 799 797 797 798 797 796 797 797 796 795 795 794 794 793 792 791 790
677 681 685 689 693 698 703 707 711 714 717 720 723 726 729 731 733 736 737 740 742 745 748 750 752 754 755 757 759 760 761 762 765 771 774 776 780 782 783 784 786 789 791 792 794 794 794 795 795 795 796 796 796 797 797 797 797 797 796 795 795 796 796 796 797 797 797 796 795 794 794 795 795 794 794 794 794 794 793 793 792 791 789 788 787
675 679 683 688 693 697 701 705 709 712 716 719 722 725 728 729 732 734 735 738 740 742 745 748 750 751 753 755 756 758 760 761 764 770 774 776 779 780 781 782 783 786 789 790 791 792 793 794 794 794 794 794 794 794 794 795 795 794 793 793 793 792 792 793 794 794 793 793 792 792 791 792 792 792 792 792 792 791 791 790 790 789 787 786 784
673 678 683 688 692 696 699 703 707 711 715 718 721 724 726 728 730 732 734 736 738 740 743 745 747 749 750 752 754 756 759 760 764 770 773 774 775 777 777 778 780 783 786 787 788 789 790 791 793 794 794 793 793 792 792 792 792 792 791 791 790 790 789 790 790 790 790 790 790 790 789 789 790 790 790 790 789 789 789 787 787 786 785 784 782
673 678 683 688 692 696 699 703 706 710 713 716 719 722 724 727 729 731 733 735 736 738 740 742 745 746 748 750 752 754 757 759 762 766 768 769 769 771 773 775 778 782 784 785 785 786 786 788 791 793 793 791 791 790 789 790 790 789 789 789 788 788 787 788 787 787 787 788 787 787 786 786 787 786 787 787 787 786 786 784 784 784 783 782 780
673 678 683 688 692 695 699 702 705 708 711 714 716 719 721 724 727 729 732 734 735 737 738 740 742 744 746 749 751 753 756 758 760 763 766 767 767 768 770 773 776 780 782 783 782 782 783 784 788 790 789 787 788 787 787 787 787 787 787 786 786 785 785 786 786 785 785 785 785 785 784 784 784 783 783 784 783 783 783 781 781 782 781 779 778
672 677 682 686 690 693 697 700 703 706 710 712 714 716 719 722 725 728 730 732 734 735 736 739 741 743 745 748 750 752 755 757 760 762 764 764 765 767 770 772 775 778 780 780 780 780 780 781 784 786 785 784 785 785 784 784 784 784 784 783 783 783 783 783 784 784 784 784 783 783 782 782 781 781 780 780 780 780 780 779 779 779 778 777 775
670 676 680 684 688 692 695 699 701 704 709 711 713 715 717 720 723 725 728 730 732 733 736 738 741 743 745 747 749 751 754 756 759 761 761 762 765 768 771 772 773 776 776 777 779 779 778 778 781 782 781 781 782 782 782 782 782 781 781 780 780 781 781 781 781 781 782 781 781 781 780 780 779 779 778 778 779 779 778 777 777 776 775 773 772
670 675 679 684 688 692 695 698 701 705 708 711 713 715 717 719 721 724 726 728 730 733 735 737 740 743 744 746 748 751 753 756 757 759 760 761 764 767 770 771 771 772 773 774 776 776 775 776 778 779 779 779 780 780 780 780 779 779 778 778 778 778 778 779 779 779 779 779 779 779 778 778 777 777 777 776 776 776 776 775 774 773 772 771 770
669 674 678 682 685 689 692 695 699 702 705 708 711 713 715 718 720 722 725 727 729 732 734 735 738 740 742 745 747 749 751 753 755 756 758 761 762 764 766 767 767 769 770 771 772 772 772 774 775 776 776 777 777 778 778 777 777 776 776 776 776 776 776 776 776 776 777 777 777 777 776 776 776 775 775 774 774 774 773 772 772 771 770 769 767
668 673 677 680 683 686 691 695 698 700 703 706 708 710 713 717 719 721 723 725 728 730 732 734 736 738 740 743 744 746 749 751 753 754 757 759 761 761 762 763 763 765 767 768 769 769 770 771 772 773 774 775 776 776 776 775 775 775 774 774 774 774 774 774 774 774 775 775 775 775 775 775 774 773 773 772 772 771 771 770 769 769 767 766 765
666 671 675 679 683 687 691 695 698 699 702 705 706 708 712 716 718 721 722 724 727 729 731 733 734 736 739 741 743 746 748 750 752 754 755 757 758 759 760 760 761 762 764 766 767 768 768 769 770 771 773 774 774 774 774 773 773 772 772 772 772 772 772 772 772 773 773 773 774 774 773 773 772 771 771 770 770 769 769 768 767 766 765 764 763
666 670 675 679 683 687 691 694 697 699 702 704 705 708 711 715 718 720 721 723 726 728 730 732 733 736 738 740 743 745 747 749 751 752 754 755 756 757 758 759 760 761 763 765 766 766 767 768 769 770 772 772 772 772 771 770 770 770 770 770 770 770 770 770 771 771 772 772 772 772 771 771 770 769 769 768 768 768 767 766 765 764 763 762 760
667 671 675 679 683 686 690 693 696 700 702 704 705 709 712 715 717 719 721 722 724 727 729 731 732 734 737 739 742 744 746 748 750 751 752 753 754 755 756 757 758 759 760 762 764 764 766 767 768 769 770 770 770 769 768 768 768 768 769 769 769 769 769 769 770 770 770 770 770 770 769 768 768 767 767 767 767 766 766 765 763 762 761 760 758
669 673 677 681 684 687 690 694 698 701 702 703 706 710 713 716 717 719 720 722 724 726 728 729 731 733 735 737 740 743 745 747 747 748 748 749 751 753 754 754 755 757 758 760 762 763 764 766 767 768 768 767 767 765 765 765 766 766 767 767 767 767 768 768 768 768 768 768 768 767 767 766 766 766 766 765 765 765 764 763 762 760 760 758 756
673 676 680 683 686 689 692 695 698 700 701 703 707 710 713 715 717 719 720 722 724 725 727 728 730 731 733 736 738 741 743 745 745 747 747 748 750 751 753 753 754 756 757 759 761 762 763 764 765 766 765 764 763 762 763 764 764 765 766 766 766 766 766 766 766 766 766 766 765 765 765 765 765 765 764 764 764 763 762 762 760 759 758 756 754
675 679 681 684 688 691 693 695 697 699 701 704 707 711 714 716 718 719 721 722 724 725 726 727 728 730 733 736 738 739 741 743 745 747 748 749 750 752 753 754 754 755 757 758 759 760 761 762 762 762 761 760 760 760 761 762 762 764 764 765 765 764 764 765 765 764 764 764 764 764 764 764 764 763 763 763 762 762 761 760 759 757 755 754 752
677 679 681 684 688 691 693 695 697 699 702 705 707 710 714 716 718 720 722 723 724 725 726 727 728 730 732 734 736 739 741 743 745 746 747 749 750 751 752 754 755 756 757 758 759 759 760 760 760 759 758 758 757 758 759 760 761 762 763 763 763 763 763 764 763 763 763 763 763 763 763 763 763 762 762 762 761 760 759 758 757 755 754 752 750
676 678 680 684 687 690 693 695 698 701 703 706 708 710 713 716 719 722 724 724 725 726 727 728 729 731 732 733 735 737 740 742 744 745 747 748 750 750 751 753 754 755 756 757 757 758 758 758 757 756 756 756 756 756 758 758 759 760 761 761 761 761 762 762 762 762 762 762 762 762 762 762 762 761 761 760 759 758 758 756 755 754 752 750 749
676 679 681 684 687 690 693 696 699 702 705 707 709 710 712 716 720 723 725 725 726 726 727 729 730 731 733 734 735 736 738 740 742 744 746 747 748 749 750 752 753 754 754 755 756 757 756 756 755 755 755 755 755 756 757 757 758 759 759 759 760 760 761 761 761 761 761 761 762 762 761 761 761 760 760 759 758 757 756 755 753 752 750 749 747
680 682 684 686 688 691 695 697 700 702 705 707 708 710 713 716 719 722 724 725 727 728 729 730 731 732 733 734 735 736 737 739 741 743 744 746 747 748 749 750 751 752 753 754 754 755 754 754 754 753 754 754 755 755 756 756 757 757 758 759 759 760 761 760 761 761 761 761 761 761 760 761 761 760 759 758 757 756 755 753 752 751 749 748 746
684 685 686 687 689 692 696 699 701 703 704 706 708 709 712 715 718 721 722 724 726 728 730 731 732 732 733 734 734 736 737 738 740 742 743 744 745 746 748 749 751 752 752 753 753 753 753 753 753 753 753 754 755 755 756 757 757 758 758 759 759 760 760 760 760 761 761 761 761 760 760 761 760 759 758 757 756 755 754 752 751 749 748 747 746
686 686 687 688 690 693 696 698 700 703 704 705 707 709 712 715 717 719 721 723 725 727 730 731 732 733 734 734 735 736 737 738 740 741 742 744 745 746 747 749 750 751 751 751 752 752 753 753 753 753 754 754 756 756 757 757 758 758 759 759 759 759 759 759 759 759 760 760 760 760 760 760 759 758 757 756 755 754 753 751 750 749 748 746 744
686 686 687 689 692 694 696 698 700 702 704 706 707 710 712 714 716 717 720 722 724 726 729 730 731 732 734 735 736 736 737 739 740 741 742 744 745 746 747 748 748 749 750 750 750 751 752 752 753 754 754 755 756 757 757 757 758 758 758 758 759 759 759 758 758 758 759 760 760 759 759 758 758 757 756 755 754 753 752 751 749 748 747 745 743
685 686 688 690 692 695 697 698 700 703 705 706 708 709 711 713 714 716 718 721 723 725 728 729 730 732 733 734 735 736 737 739 740 741 742 743 744 745 746 746 747 748 748 749 749 750 751 752 753 754 755 755 756 757 756 757 758 758 758 758 758 758 758 758 758 757 758 759 759 758 758 757 757 756 756 755 754 753 751 750 749 747 745 744 742
685 686 688 690 692 695 698 700 702 704 705 706 707 709 711 712 714 716 718 720 722 724 726 727 729 730 731 732 734 736 737 739 740 741 742 743 743 744 745 745 746 747 747 748 748 749 751 752 753 754 755 755 756 756 756 757 757 757 757 757 757 757 757 758 757 757 758 758 758 757 757 757 756 756 755 754 754 752 751 750 748 746 744 743 741
686 688 690 692 694 697 699 701 703 704 705 706 707 709 710 712 714 715 717 719 721 722 724 726 727 728 729 731 733 735 737 738 739 740 741 742 743 743 744 745 745 746 747 747 748 749 750 751 752 754 754 755 755 755 756 756 756 756 756 757 757 757 757 757 757 757 757 757 757 757 757 756 756 755 755 754 753 752 750 749 747 746 744 742 740
687 689 691 693 696 698 700 701 703 703 705 707 707 708 710 712 713 714 716 718 720 722 723 724 725 726 728 730 732 734 736 737 738 739 740 741 742 743 743 744 745 745 746 747 748 749 750 751 752 753 754 754 754 755 755 756 756 756 756 756 756 756 757 757 757 757 756 756 757 757 756 756 755 755 754 754 752 751 750 748 747 745 743 742 740
689 691 693 695 697 698 699 701 702 703 705 706 707 708 709 711 712 714 715 717 719 721 722 723 724 726 728 730 732 733 735 736 738 739 739 740 741 742 743 744 744 745 746 747 748 749 749 750 751 751 752 752 753 753 754 754 754 754 755 755 756 756 756 756 756 756 756 756 756 756 755 755 755 754 754 753 751 750 749 748 746 745 743 741 740
691 692 694 696 697 698 699 700 701 703 704 705 706 708 709 710 712 714 715 716 718 720 721 723 725 727 729 731 732 733 735 736 737 737 738 739 740 741 742 743 744 745 746 747 747 748 749 749 750 750 750 751 752 752 752 752 752 753 754 755 756 756 756 756 756 756 755 755 755 755 755 755 755 754 753 752 751 750 749 747 746 744 743 741 739
691 693 695 696 697 698 699 700 701 703 704 705 706 708 709 711 712 713 715 716 717 719 722 724 726 728 730 731 733 734 735 736 736 736 737 738 739 740 742 743 743 744 745 746 747 748 749 749 750 750 750 750 750 750 751 751 752 753 755 755 755 756 756 756 756 755 755 755 755 755 755 755 754 753 753 752 751 750 748 747 745 744 742 741 739
692 694 695 696 697 698 699 700 701 703 704 706 707 709 710 711 712 713 714 716 717 719 722 724 726 728 730 732 733 734 734 735 735 736 737 738 739 740 741 741 742 743 744 746 746 747 748 749 749 749 749 750 750 750 751 751 752 753 754 754 755 755 755 755 755 755 755 755 755 755 755 754 754 753 752 751 751 750 748 747 745 744 742 741 739
693 694 695 696 697 698 700 701 702 703 705 706 708 709 710 711 712 713 714 715 717 719 721 724 726 728 729 730 731 732 733 734 735 736 737 738 738 739 740 739 740 741 743 745 746 746 747 748 748 749 750 751 751 751 751 751 752 753 753 754 754 754 754 754 754 754 755 755 755 755 755 754 753 753 752 751 750 749 748 747 745 743 742 741 738
693 694 695 696 697 699 701 702 703 704 706 707 708 709 710 711 712 713 715 716 717 719 721 723 725 727 728 729 730 731 732 733 734 735 736 737 737 738 738 739 739 740 741 743 745 746 747 748 749 750 751 752 751 751 751 751 752 753 752 752 753 753 753 753 754 754 754 754 754 754 754 753 753 752 751 751 750 749 748 746 745 743 742 740 738
694 695 696 697 698 700 701 702 703 705 706 707 708 709 710 711 713 714 715 717 718 719 720 722 724 725 727 728 729 730 731 732 733 734 735 736 736 736 737 737 738 739 740 742 744 745 746 747 749 750 751 752 751 752 752 751 752 752 751 751 752 752 753 753 753 753 753 753 753 753 753 752 752 752 751 750 749 748 747 746 745 743 742 740 737
695 696 697 698 698 699 701 702 704 705 706 707 708 709 710 712 713 714 716 717 717 718 719 721 722 723 725 727 727 728 730 731 732 733 734 734 735 735 736 736 737 739 740 741 743 744 745 746 747 749 750 751 751 751 751 752 752 751 750 750 751 752 752 753 753 753 753 752 752 752 751 751 751 751 750 749 748 748 747 746 745 743 742 739 737
696 697 698 699 699 700 701 702 703 704 705 707 708 709 710 712 713 713 714 715 716 717 718 720 721 722 724 725 726 727 728 730 731 732 733 734 734 735 735 736 737 737 739 741 742 742 743 744 745 746 748 750 751 751 751 752 751 750 750 750 750 751 751 752 752 752 752 751 751 750 750 750 750 750 749 749 748 747 746 745 744 743 741 739 737
698 698 699 700 700 701 702 703 704 705 706 707 708 709 710 710 711 712 713 714 716 717 718 719 721 722 723 724 725 726 727 728 729 730 731 733 733 734 734 735 736 736 738 739 741 741 742 742 743 744 746 747 749 750 751 751 751 750 749 750 750 750 750 751 751 751 750 750 750 749 748 748 748 749 748 748 747 746 746 745 744 742 740 739 737
Wind_Speed
37 37 36 35 34 34 35 36 35 34 33 32 31 30 29 28 26 26 27 27 27 28 29 28 28 28 26 24 23 24 24 24 24 23 22 21 20 19 18 18 17 16 14 14 13 13 12 11 11 11 11 11 11 11 11 11 11 12 12 12 12 12 12 13 10 9 11 12 13 13 12 12 13 13 13 13 14 15 16 15 15 16 17 18 18
38 38 36 35 36 36 36 36 36 35 33 33 32 31 30 29 28 27 28 29 29 30 30 30 29 29 28 26 25 25 25 25 25 24 24 23 22 20 19 19 19 17 16 15 14 13 12 12 12 12 12 12 12 11 12 12 12 13 13 12 13 13 13 13 12 10 10 12 12 13 12 12 12 13 12 13 14 15 14 14 15 17 17 16 17
37 37 36 36 37 37 36 36 37 35 34 33 32 31 30 31 30 29 29 30 30 31 31 31 31 30 29 27 26 26 27 27 26 25 26 25 24 22 20 19 19 18 17 16 15 14 13 13 13 13 13 12 12 12 12 13 13 13 13 13 14 14 13 13 13 11 12 13 12 12 12 11 12 13 13 14 15 15 15 16 17 16 15 16 18
35 36 37 36 37 37 37 36 36 35 34 33 32 31 30 31 32 32 30 30 31 32 32 32 32 31 29 28 28 27 28 29 28 27 27 27 26 24 22 21 20 19 18 17 17 16 15 15 15 14 14 13 13 13 13 14 14 14 14 14 15 15 14 14 14 13 13 14 14 13 13 13 15 15 14 15 16 16 17 18 18 18 19 20 20
34 35 36 36 36 38 38 36 35 35 34 32 31 32 30 30 32 34 32 30 31 33 33 31 31 32 31 31 31 30 29 30 30 28 28 28 27 25 23 22 21 20 19 18 17 17 17 17 17 15 15 15 15 15 15 15 15 15 15 15 15 15 15 15 15 15 15 15 16 16 15 15 16 16 15 16 16 16 17 18 18 18 19 20 20
34 34 35 35 37 38 38 37 36 35 35 32 31 32 32 30 31 33 33 31 30 32 34 33 32 34 34 33 33 33 30 31 32 30 28 28 28 27 25 24 22 21 20 19 17 17 17 17 16 16 16 16 16 16 16 15 16 16 16 15 15 15 16 16 16 15 16 16 17 17 17 16 17 17 16 15 16 16 16 17 18 18 18 20 21
35 34 34 35 36 37 38 38 37 35 35 34 33 32 32 31 30 31 32 30 29 29 32 35 35 35 36 33 32 34 33 31 32 31 29 29 28 27 25 25 23 21 20 19 18 18 18 17 17 18 18 18 18 18 17 17 17 17 17 16 17 17 17 17 17 16 16 16 17 17 17 16 16 17 16 15 15 16 17 17 18 20 21 21 22
35 35 34 34 35 37 38 38 37 36 35 36 34 32 32 32 31 31 31 30 29 28 30 35 37 36 36 35 32 33 34 32 31 32 31 29 29 27 26 26 24 22 21 20 19 18 18 18 18 19 19 19 20 20 19 18 17 17 17 17 18 18 17 17 16 16 15 15 15 15 16 16 17 17 17 17 16 16 16 17 18 20 20 19 19
35 35 35 34 34 36 37 36 37 36 35 34 34 33 32 32 32 32 33 32 31 31 29 32 37 37 36 35 34 34 35 33 32 33 32 30 30 30 28 27 25 23 22 20 19 18 18 17 18 18 19 19 20 21 21 20 19 19 18 17 17 18 17 17 17 16 15 14 14 14 14 15 17 17 18 17 16 16 16 16 18 19 19 19 19
35 34 34 33 33 34 34 34 34 35 34 34 34 34 32 31 31 32 34 33 32 32 32 31 35 37 36 36 35 34 34 34 34 35 35 33 32 30 28 27 24 22 21 20 18 17 17 17 17 17 18 18 19 19 20 21 21 22 21 20 19 17 16 16 17 17 16 15 15 15 14 15 17 17 17 17 16 16 16 16 17 17 16 17 18
35 34 34 33 32 32 32 32 32 32 33 32 32 32 31 30 29 30 32 33 32 32 34 33 33 35 36 36 35 34 33 34 35 36 36 35 32 29 26 25 24 22 21 19 17 16 16 16 17 17 17 17 18 18 20 21 22 23 23 24 23 22 21 19 19 18 17 16 16 16 15 16 18 18 18 18 16 15 15 15 16 16 15 14 15
35 33 32 31 30 31 31 30 29 30 30 29 29 30 29 28 28 28 29 32 32 31 32 33 32 32 33 34 34 34 33 33 35 36 35 35 32 29 26 25 23 21 20 19 17 16 16 16 16 16 16 16 16 16 18 19 20 21 22 23 24 25 25 26 25 23 21 19 18 18 19 19 19 19 18 17 15 14 14 15 15 16 16 16 16
34 32 31 30 30 29 29 28 27 27 28 27 26 26 27 27 26 26 27 28 28 28 29 31 31 31 31 31 32 32 31 33 34 34 34 34 33 29 26 24 22 20 19 18 16 16 16 17 17 17 16 15 14 15 16 16 16 18 19 20 22 24 25 27 27 27 26 25 23 23 23 22 21 20 18 17 16 15 15 16 17 18 19 19 19
31 30 30 29 29 29 28 27 26 25 26 26 24 24 26 26 24 23 23 24 24 25 26 29 30 30 29 29 30 29 30 32 33 32 33 35 33 28 23 20 19 18 17 16 16 15 15 15 16 17 16 15 15 16 16 16 16 17 18 19 21 23 25 26 27 27 28 28 28 28 27 24 21 19 17 16 17 17 16 17 18 19 21 21 22
29 29 28 28 28 29 28 26 25 24 24 25 23 23 23 23 22 22 22 24 25 26 27 27 27 28 27 27 28 27 28 31 31 31 32 33 31 28 24 20 18 17 18 17 16 15 15 15 17 17 17 16 16 16 17 17 17 17 18 20 21 21 22 24 25 25 26 26 26 27 27 26 25 23 21 19 19 17 16 17 18 20 23 24 25
28 27 27 27 26 26 26 25 23 22 22 22 21 21 20 21 23 23 22 23 24 26 26 25 26 26 25 25 26 24 25 29 30 29 29 28 26 26 25 22 19 18 19 18 17 17 17 17 18 18 18 19 18 18 18 18 18 17 17 19 20 19 21 23 23 23 25 25 23 24 25 24 24 24 23 21 19 19 18 19 20 20 21 21 21
26 26 26 25 24 23 23 24 22 21 21 21 19 19 18 19 21 23 22 21 21 24 25 25 25 26 24 24 24 21 23 26 27 25 26 25 23 24 24 22 20 17 15 15 16 16 13 13 15 17 19 20 19 18 18 18 18 17 16 16 16 17 20 20 20 19 19 19 19 21 22 22 23 23 22 20 20 21 20 19 20 19 18 15 14
24 23 24 24 23 22 22 23 22 21 21 20 18 17 16 16 18 20 20 19 19 22 25 24 24 25 24 24 23 22 23 25 25 26 27 24 22 24 23 20 17 14 12 12 14 13 12 13 14 18 22 23 21 21 20 18 18 18 17 15 14 15 16 15 14 13 11 11 13 16 18 20 22 23 22 21 21 21 21 22 22 19 16 14 14
23 22 22 22 22 21 21 22 21 20 20 19 18 18 16 15 16 18 18 18 18 20 23 23 23 23 23 21 20 21 23 25 26 27 25 20 19 22 22 18 14 12 13 13 13 13 14 13 12 17 24 26 24 23 21 20 20 18 16 14 12 12 12 10 8 7 7 10 12 14 15 16 18 19 19 20 20 20 23 25 24 21 18 17 19
25 24 24 24 23 23 22 22 22 21 20 19 18 18 17 15 16 17 18 18 17 18 21 22 20 20 21 19 18 21 25 26 27 26 19 16 19 21 18 14 12 12 14 14 15 15 12 11 13 20 25 26 25 24 22 20 20 18 15 12 11 11 11 10 9 8 9 12 12 13 14 15 16 17 19 19 19 19 21 23 23 23 22 22 22
27 27 26 25 24 23 22 22 22 19 18 18 17 16 16 14 15 17 17 17 16 16 18 18 17 18 21 19 18 22 27 27 25 20 15 16 19 18 14 13 15 15 15 15 15 13 11 13 19 23 24 22 22 21 19 18 17 16 14 13 13 13 14 14 14 12 12 13 13 14 15 15 16 16 17 17 17 17 19 20 20 22 23 23 25
28 27 26 24 23 21 20 20 20 17 16 17 16 14 14 13 14 16 16 16 17 16 17 18 17 17 19 19 18 22 25 23 20 18 18 20 20 16 14 15 16 15 15 15 16 16 16 18 20 20 19 18 16 16 16 16 16 15 15 14 13 14 14 15 14 13 12 12 13 14 14 15 16 15 15 15 15 15 15 14 15 17 19 20 21
28 26 26 25 24 22 21 21 21 18 17 18 16 14 13 12 13 15 16 17 18 16 16 19 19 17 17 18 18 20 22 24 24 22 23 24 22 17 17 17 15 14 16 18 19 19 18 17 18 19 18 15 14 14 14 15 15 15 14 13 13 13 13 13 12 11 11 12 13 14 14 14 14 14 14 14 14 13 13 13 15 18 19 21 22
28 26 25 25 24 23 22 22 21 18 18 17 15 14 13 13 13 16 16 17 17 16 16 19 19 16 16 17 17 19 21 23 24 24 25 24 21 18 18 18 16 17 20 19 18 16 15 16 17 18 15 13 12 13 13 14 14 14 13 13 13 13 13 12 11 10 11 12 12 12 13 13 14 14 14 13 13 14 15 16 17 19 20 22 23
27 25 24 24 23 22 21 21 19 17 17 17 15 15 15 13 13 15 15 16 16 16 16 17 16 15 15 17 20 22 24 26 25 23 21 21 18 15 17 18 18 20 22 20 16 14 14 16 16 14 12 12 12 12 12 13 12 12 12 12 12 12 12 11 10 10 10 10 11 11 12 13 13 13 13 14 15 17 19 19 19 20 20 19 20
26 24 24 23 23 22 21 19 18 17 16 16 14 15 15 14 13 14 14 15 15 14 14 15 16 16 17 18 20 22 25 27 25 22 20 18 16 17 19 20 20 21 22 20 18 17 16 16 15 14 13 13 13 12 11 10 10 9 9 9 9 9 9 9 8 8 7 8 10 11 12 13 14 14 15 16 18 19 20 19 19 19 18 18 20
24 23 22 22 22 21 20 19 18 16 15 14 13 12 12 12 12 12 12 12 12 12 12 13 15 17 18 19 20 22 24 24 24 23 21 19 20 22 22 21 20 20 21 21 20 18 18 18 17 16 14 12 11 9 8 7 8 8 7 6 6 6 6 7 6 6 7 9 10 11 13 14 15 14 13 14 16 18 17 17 17 17 18 19 21
21 20 21 20 20 20 19 18 17 16 14 14 13 11 9 8 10 10 10 10 11 12 13 15 16 18 21 23 22 21 20 22 25 27 25 24 24 24 23 21 20 20 20 19 17 16 17 18 17 14 13 12 8 5 5 6 7 7 6 6 7 6 6 7 7 8 9 11 12 14 14 13 12 12 13 15 16 17 16 16 17 18 19 20 20
20 20 20 19 18 17 17 17 18 18 17 16 14 10 7 6 8 9 9 10 11 13 15 16 16 19 23 25 23 21 19 22 27 28 25 24 23 22 20 18 16 15 14 13 13 14 16 17 17 16 15 14 10 7 6 7 8 8 8 8 9 8 7 8 10 11 11 13 15 15 11 9 11 12 14 15 16 16 16 16 17 19 21 21 20
19 18 18 17 17 16 15 18 20 20 19 18 16 13 10 8 8 8 9 11 12 14 15 16 17 19 23 23 22 22 21 23 24 23 20 20 20 18 17 15 12 12 12 13 13 13 13 14 15 14 14 12 10 8 8 9 10 10 9 8 8 8 8 8 9 9 9 10 10 8 7 9 12 13 13 14 15 16 16 16 18 20 20 19 18
18 17 17 19 19 17 16 19 21 20 19 18 18 17 15 12 9 8 10 12 13 14 16 17 17 17 20 22 23 22 18 18 20 20 19 20 19 18 17 16 13 13 14 14 13 11 10 12 12 11 11 11 9 8 9 9 9 9 8 9 10 9 8 8 9 8 8 7 7 8 9 11 12 13 14 15 15 15 16 17 18 18 18 18 18
15 15 18 22 22 18 18 19 18 17 17 17 17 17 17 15 12 11 11 12 14 15 17 17 15 15 18 23 25 22 17 16 18 19 20 21 22 20 18 16 13 12 12 11 10 9 10 11 11 10 10 9 7 5 5 5 6 8 9 9 8 5 5 7 7 5 4 6 8 9 11 11 12 14 14 14 14 15 16 17 17 17 18 18 17
15 17 21 23 21 19 19 18 16 14 14 14 14 14 14 13 12 12 13 13 14 15 15 16 16 16 18 20 21 20 18 18 19 19 19 20 20 18 14 12 11 9 9 8 8 8 9 10 10 9 8 6 6 4 3 5 6 6 5 2 2 5 7 6 4 4 5 7 8 8 8 10 12 13 13 13 14 15 17 17 16 17 17 16 16
19 19 19 20 19 19 18 16 15 13 13 13 13 14 14 13 14 14 13 12 13 13 14 16 17 18 19 19 18 18 19 19 18 16 15 14 13 11 9 8 8 8 7 7 7 7 7 9 9 7 5 4 3 1 2 2 1 1 3 4 4 6 6 5 6 6 8 8 7 7 9 11 13 14 14 14 15 16 16 15 16 17 16 15 16
16 17 19 20 19 18 16 14 14 13 14 14 15 15 14 15 16 15 13 12 12 12 13 15 17 17 18 18 18 17 17 16 15 13 12 11 9 9 8 7 7 6 7 8 7 6 6 7 7 4 4 4 4 5 5 6 5 4 4 5 6 7 7 6 6 7 9 9 9 9 11 13 14 13 13 14 14 14 15 16 16 16 16 16 17
12 15 19 19 18 16 16 16 15 14 14 15 14 14 14 15 16 15 14 14 14 13 13 15 16 15 15 16 16 16 15 14 13 12 11 10 9 9 8 7 7 8 8 8 7 6 5 5 5 5 5 5 5 3 2 3 3 3 4 5 8 11 11 5 2 6 10 12 11 11 12 13 13 12 12 13 13 14 15 16 16 16 17 18 19
13 13 14 16 17 17 17 17 16 15 15 15 15 14 15 16 16 16 16 15 15 15 15 17 17 16 15 15 15 15 14 13 12 11 10 9 9 9 9 8 7 8 10 11 8 6 5 3 3 4 3 2 2 3 3 3 4 6 6 6 8 11 8 4 3 7 12 12 11 10 11 11 11 11 11 12 13 14 15 15 16 17 18 19 19
14 13 12 14 17 17 16 16 17 16 15 14 14 14 14 14 15 15 15 16 15 15 15 16 15 14 15 16 15 14 14 13 11 9 8 8 9 9 10 10 8 7 9 10 8 5 3 3 1 1 2 2 2 3 4 5 5 6 7 7 9 9 6 4 6 8 9 10 11 10 9 10 10 11 11 12 13 14 15 16 17 18 18 17 18
16 15 13 14 16 16 15 15 16 16 14 13 13 13 12 12 13 14 14 15 14 14 14 14 13 12 15 18 17 15 13 11 9 8 8 8 9 8 8 9 8 7 5 3 3 2 2 2 1 1 2 2 2 2 3 5 6 8 10 11 11 9 7 6 7 8 8 9 9 8 8 9 10 10 11 12 13 14 16 17 18 17 17 17 18
18 17 15 14 14 14 14 15 15 13 12 12 13 13 12 12 12 13 14 13 12 12 13 13 12 13 16 18 17 15 12 9 8 9 8 8 8 7 7 8 9 6 3 1 1 1 2 1 1 2 3 4 4 4 4 6 7 8 10 10 8 8 8 9 9 9 8 7 7 7 8 9 9 10 11 12 13 15 17 17 17 17 17 18 18
15 16 15 13 14 14 13 13 13 11 12 13 12 12 12 12 11 12 12 12 12 12 11 10 12 16 18 16 14 12 11 8 8 10 10 9 9 9 9 9 7 4 3 3 3 3 3 2 3 4 4 4 5 5 5 6 8 10 9 8 7 8 9 9 9 9 8 6 6 7 8 8 9 10 11 12 14 15 15 16 17 17 17 17 19
12 13 13 13 14 13 11 11 12 11 12 12 12 12 12 12 12 12 13 13 13 12 9 9 11 16 18 13 10 11 10 8 8 9 11 11 11 10 9 8 5 3 3 3 2 3 5 6 8 8 7 8 9 9 8 9 10 9 7 6 7 8 9 8 8 7 6 5 6 6 6 7 9 10 11 13 14 14 15 16 17 17 17 17 19
11 11 11 12 12 10 9 10 11 10 9 10 12 13 12 11 11 11 11 11 11 11 12 13 14 17 17 13 11 10 7 6 7 8 9 11 11 9 6 5 4 4 5 5 3 4 7 9 10 10 9 9 9 9 8 7 4 3 3 5 7 8 8 7 7 7 6 5 5 6 7 8 9 10 11 12 13 13 15 16 16 16 17 17 18
8 10 10 10 9 8 9 10 10 8 8 10 12 12 11 9 9 9 10 9 8 9 13 14 13 15 16 14 11 9 6 8 9 7 6 6 7 5 5 6 7 7 7 6 4 3 2 3 3 4 3 2 4 4 4 3 1 1 4 6 6 7 7 7 6 6 5 4 5 7 8 9 9 10 11 12 13 13 15 16 15 16 17 17 18
6 8 9 9 9 9 9 9 9 10 11 11 11 10 9 8 7 7 9 9 8 9 14 16 14 12 13 12 11 10 9 10 9 7 6 5 6 6 7 8 8 8 6 4 2 1 2 3 4 6 6 5 5 4 2 2 2 3 5 5 6 6 6 5 4 3 4 4 5 7 8 8 9 10 11 12 13 13 14 15 16 16 15 16 19
6 8 9 9 10 10 9 9 10 11 10 10 9 8 7 8 8 7 8 9 8 8 11 15 14 12 10 9 8 8 8 8 8 8 8 8 8 10 11 10 11 11 7 3 1 1 2 3 5 6 6 5 5 4 3 3 4 5 6 6 6 6 4 2 1 0 2 3 4 6 7 8 10 10 11 12 12 13 14 15 15 15 15 16 19
5 7 8 9 10 11 10 10 11 10 9 9 9 8 7 7 7 7 8 8 7 8 9 11 13 13 10 8 7 8 8 9 9 9 10 11 11 13 11 8 10 11 8 4 3 2 2 3 3 4 5 6 5 5 5 5 4 5 6 7 8 8 7 5 5 4 5 6 7 8 8 9 10 10 11 12 11 12 14 14 14 14 15 17 19
4 6 7 7 9 12 12 11 10 9 9 10 9 7 7 8 7 7 8 8 8 9 9 9 11 13 12 11 10 10 10 10 8 8 10 11 11 11 9 6 5 6 6 5 5 6 5 3 3 3 5 6 6 6 6 6 6 6 6 8 9 10 9 9 9 10 12 12 12 10 9 9 10 11 11 11 12 13 13 13 13 14 15 17 19
2 5 6 7 8 10 10 10 10 10 11 12 10 7 7 9 8 7 9 10 10 11 12 11 11 12 14 13 11 9 9 8 7 6 7 9 8 6 6 7 6 7 7 6 6 8 9 7 6 5 6 7 7 7 7 7 7 7 8 9 10 10 10 11 11 12 12 11 10 8 7 8 9 9 10 11 12 12 12 11 13 14 15 17 18
2 3 5 6 6 7 8 8 8 7 8 9 9 8 8 9 9 8 9 9 8 8 10 11 9 8 10 10 8 7 7 8 7 6 7 9 9 7 6 6 8 9 9 7 7 9 11 10 9 8 7 7 8 8 8 7 8 10 11 11 10 10 10 10 10 10 9 8 8 9 8 8 7 8 10 11 11 11 11 11 13 15 16 16 16
3 3 5 5 5 5 5 4 4 6 8 8 8 9 9 10 11 10 8 6 5 5 6 7 7 6 6 7 7 6 7 8 8 7 8 10 9 8 8 8 8 10 12 11 10 10 10 11 10 10 10 9 8 8 8 8 10 12 12 11 10 11 11 10 10 10 8 7 8 9 8 6 5 7 10 10 9 9 11 12 13 15 16 15 13
Wind_Direction
194 195 194 194 193 193 196 198 199 200 199 199 199 200 200 200 197 196 194 194 193 191 190 192 194 196 196 196 197 196 195 196 196 197 197 198 201 207 206 201 199 202 207 213 221 227 227 225 230 233 235 237 238 240 243 245 244 243 242 240 238 240 240 239 243 260 269 272 276 278 278 278 279 276 272 269 270 273 271 270 278 289 290 286 283
195 195 193 193 194 195 196 199 200 201 200 201 200 200 200 201 199 196 195 195 193 192 192 193 195 196 196 196 197 196 195 195 195 196 196 198 201 206 208 204 199 199 204 213 221 225 228 229 232 235 237 240 241 243 246 247 246 245 244 242 242 243 244 244 247 258 271 274 276 279 278 275 274 276 274 271 272 274 269 267 281 293 292 284 281
194 194 193 194 196 196 196 199 200 200 201 201 200 199 199 200 200 198 196 196 194 194 195 195 196 195 196 197 197 196 196 195 195 195 196 198 200 204 207 206 201 197 200 211 219 222 227 230 233 237 239 241 244 246 248 251 251 249 248 249 250 249 250 250 252 260 272 277 278 280 281 278 275 277 279 276 276 277 274 275 284 289 287 281 281
192 191 193 196 196 196 197 198 199 198 199 200 199 198 198 198 200 200 198 196 195 196 197 197 196 194 194 196 196 197 197 196 195 195 197 199 200 202 204 205 203 200 201 209 217 221 225 229 234 237 239 241 245 248 249 251 253 252 252 252 253 253 253 253 256 260 267 274 276 275 276 278 278 278 276 276 275 274 275 277 278 277 278 279 279
190 190 192 194 195 196 197 197 197 197 198 198 197 197 197 196 198 199 199 197 195 196 197 197 195 193 193 195 196 197 197 196 195 195 196 199 200 201 202 204 205 205 205 210 218 222 225 228 232 236 237 239 243 246 248 250 251 251 251 251 250 252 252 251 254 256 257 264 272 276 278 279 279 278 275 271 268 269 274 276 274 273 276 278 276
190 188 190 192 194 196 197 197 197 197 197 197 197 198 198 197 197 197 197 197 195 194 196 196 195 194 195 197 196 196 195 197 198 197 196 198 200 200 201 202 204 205 207 211 219 225 227 230 233 237 239 241 242 244 247 249 250 248 248 249 249 250 250 249 251 253 253 258 268 276 279 279 279 279 276 270 265 265 269 273 274 273 274 277 277
191 188 190 193 194 196 197 198 199 198 198 199 199 199 200 199 197 194 195 195 193 192 194 196 197 196 196 197 196 196 196 197 200 200 197 197 199 200 201 204 204 206 210 213 219 226 230 232 236 239 239 241 243 245 248 249 251 250 249 249 249 248 249 250 251 252 253 256 261 267 274 279 279 278 279 277 271 267 266 267 269 271 272 273 274
191 189 191 194 195 196 197 198 199 199 200 201 200 200 201 200 198 194 193 194 194 195 196 195 196 197 197 197 197 198 198 198 200 200 198 197 197 198 201 204 205 208 213 216 220 225 229 233 237 239 240 241 243 244 245 246 248 251 251 251 249 247 246 248 250 251 254 257 259 264 272 278 278 278 281 278 270 268 267 262 260 266 270 270 271
191 189 191 195 195 196 197 198 199 199 200 200 200 200 201 200 198 195 194 195 197 200 198 194 195 196 196 196 197 198 199 199 199 199 197 196 196 197 199 202 204 208 213 216 220 225 231 234 237 241 241 243 245 245 244 243 243 247 250 250 249 247 245 246 248 251 254 257 260 265 271 273 273 275 275 271 267 270 274 269 265 268 272 273 274
191 190 190 194 195 194 195 196 197 198 198 199 199 200 200 201 200 197 197 198 199 200 198 194 194 195 195 196 197 198 199 200 200 200 199 197 196 196 198 199 201 207 213 218 222 227 234 237 240 243 243 244 248 250 249 247 247 249 251 252 251 248 245 246 248 249 251 254 258 262 262 263 265 268 269 271 274 277 279 278 277 279 282 282 281
190 190 190 192 192 191 192 194 195 196 197 197 198 198 200 201 202 201 199 198 199 199 196 195 195 195 196 196 197 198 199 200 201 202 202 200 197 196 197 199 201 207 213 218 223 229 236 241 244 246 247 248 252 255 255 254 253 254 257 258 258 255 252 252 253 252 251 252 255 255 254 257 261 263 267 271 274 277 280 284 286 289 290 287 284
188 189 188 188 188 188 189 190 192 193 193 194 195 197 200 202 204 204 200 198 199 198 195 195 195 195 196 196 196 198 199 201 201 201 202 202 199 197 198 199 201 206 213 219 225 231 236 241 246 248 250 251 254 258 259 256 255 256 258 262 264 264 262 260 259 256 254 255 258 257 257 260 262 262 262 265 269 274 281 284 285 286 285 281 278
186 185 184 184 183 184 184 185 187 188 188 189 191 194 198 201 204 204 199 197 199 199 197 196 195 197 197 196 197 198 201 202 200 199 201 201 199 197 197 198 201 205 211 217 223 230 235 239 243 247 249 251 254 260 263 261 259 260 261 263 265 267 267 266 263 260 258 258 259 260 260 262 264 263 261 262 267 272 276 277 278 279 279 276 276
182 180 178 179 178 179 180 181 182 183 183 185 188 193 196 199 203 202 197 195 197 200 200 199 198 199 198 197 198 199 202 202 198 199 204 203 201 199 196 196 201 206 212 219 225 232 238 242 245 248 250 253 254 258 261 263 263 263 263 262 263 265 268 269 268 266 263 262 262 263 262 264 268 269 266 268 271 273 274 274 275 276 277 276 279
177 175 172 172 173 175 176 176 177 177 179 182 187 193 196 199 201 199 195 196 198 201 204 203 203 201 199 199 199 198 202 200 195 199 204 203 202 203 201 203 210 215 223 228 231 237 245 251 254 254 254 256 258 260 263 264 263 262 257 256 260 264 266 269 270 267 265 266 267 267 267 268 269 268 268 272 274 274 275 275 274 276 278 279 281
171 170 167 168 168 168 170 170 170 172 174 179 187 193 195 199 202 201 200 199 197 200 205 207 207 204 201 200 197 196 200 197 193 197 199 196 199 205 207 211 215 221 227 227 228 236 246 254 260 263 261 260 261 264 265 264 262 259 255 256 264 269 271 276 276 269 267 268 266 267 271 273 267 264 267 271 271 274 281 282 280 279 277 276 276
168 166 166 166 164 162 164 167 168 170 174 179 186 190 193 198 201 203 204 200 195 196 200 204 207 205 202 199 193 192 196 191 187 192 194 191 194 202 206 208 211 219 226 222 224 235 250 261 270 278 277 272 268 266 266 265 263 263 263 265 268 271 275 283 286 279 272 268 264 267 272 270 263 263 270 271 269 275 282 279 276 275 274 272 272
164 163 164 164 163 163 165 167 169 172 178 180 179 183 191 198 200 200 201 198 194 195 197 200 203 203 201 198 192 189 189 185 181 185 188 188 192 199 203 202 204 217 225 220 220 230 243 252 266 278 278 272 268 264 263 264 264 265 266 265 266 270 275 283 289 286 275 265 269 274 272 266 262 263 265 265 266 271 271 268 268 268 267 268 274
161 162 162 162 162 162 163 166 168 173 179 179 178 182 188 195 199 200 200 200 198 197 197 198 198 197 196 194 190 185 182 180 179 181 185 189 193 198 201 195 191 208 218 216 219 228 237 248 264 272 269 266 264 263 263 264 266 267 266 261 262 268 272 274 278 283 275 269 278 284 279 273 269 265 264 266 267 266 263 264 265 261 258 264 270
159 161 162 162 162 163 164 166 167 170 176 179 180 182 184 190 198 197 198 203 203 197 193 193 189 185 184 185 186 184 180 178 179 181 186 195 196 197 195 181 180 202 214 218 223 226 234 250 258 260 261 262 262 261 262 262 262 263 263 260 258 258 258 260 264 273 277 278 282 285 282 280 277 272 271 272 270 266 265 268 269 263 258 260 263
158 160 162 161 161 162 162 163 164 167 174 178 180 180 181 189 196 193 192 196 191 182 182 184 180 176 179 182 182 178 174 174 180 189 199 200 192 190 188 179 184 202 213 219 225 230 245 258 256 257 260 260 258 258 258 256 255 258 262 261 260 258 259 265 272 277 280 280 279 277 277 280 279 276 274 273 273 273 271 271 273 268 261 258 259
155 155 155 154 153 154 153 155 160 166 172 176 178 178 180 188 191 187 186 186 181 178 179 181 181 181 183 187 187 183 182 190 206 217 210 194 184 182 193 196 196 204 211 216 227 243 257 256 252 255 257 253 249 249 249 250 253 259 263 265 267 268 268 271 276 280 280 277 276 276 278 279 280 281 284 287 289 288 281 277 279 279 275 271 267
149 149 149 149 150 151 152 156 162 168 171 172 173 174 179 185 185 182 180 178 179 183 183 182 185 186 187 190 193 195 203 215 222 213 195 188 187 191 200 205 205 209 217 223 232 242 246 243 245 252 253 249 248 248 249 252 255 259 264 271 277 279 278 279 280 280 276 274 275 277 280 283 287 291 297 299 299 300 300 300 298 297 298 295 291
146 148 149 148 147 148 152 158 163 166 167 168 167 167 173 179 177 176 176 176 179 182 179 179 183 186 185 181 174 175 185 193 191 185 181 185 192 197 201 204 204 211 222 230 233 236 240 244 247 248 246 245 249 250 250 254 258 264 272 278 281 282 281 282 283 280 276 276 279 282 286 291 294 294 295 299 303 308 310 310 308 305 304 300 296
144 145 145 145 145 147 151 157 160 161 164 166 163 160 164 167 165 167 173 175 178 180 178 175 174 169 162 155 149 156 168 172 172 176 183 187 194 203 209 210 210 214 222 227 224 226 238 244 241 237 240 250 257 259 260 262 266 271 276 278 282 284 285 284 281 277 277 282 291 296 295 296 297 300 306 311 314 316 315 312 308 305 302 301 300
141 143 143 144 147 149 149 152 153 152 155 157 155 155 161 164 163 167 174 175 176 180 180 176 170 157 147 144 146 157 169 174 177 181 185 193 208 216 212 211 214 219 225 229 228 230 237 242 245 249 258 264 266 265 264 263 266 271 274 280 285 283 281 277 269 267 278 289 294 295 296 300 305 307 310 312 313 314 312 309 306 305 307 310 310
137 138 139 141 144 146 146 146 144 144 144 143 141 145 159 171 173 174 179 180 178 179 178 176 171 159 148 149 155 164 173 177 178 181 189 205 216 213 208 211 217 220 224 229 231 233 238 244 251 257 262 264 264 258 252 252 261 267 271 282 288 277 266 259 254 261 277 284 286 289 295 302 304 303 307 312 311 308 306 306 307 309 312 313 309
128 128 132 136 139 142 144 142 138 136 133 130 130 135 149 171 181 185 193 195 190 185 182 183 179 166 157 157 159 164 173 181 184 189 198 207 208 207 210 214 216 219 223 229 236 240 241 243 246 247 247 245 236 218 216 232 246 250 247 252 257 251 243 251 263 272 275 275 275 278 286 297 303 308 316 315 308 304 304 306 309 311 311 307 299
123 124 130 133 134 136 138 136 133 130 126 125 127 129 132 148 166 181 193 196 192 190 186 183 180 171 166 164 163 164 175 189 196 199 202 203 204 209 212 210 212 220 225 226 226 224 220 223 226 226 226 222 207 192 201 211 218 228 236 242 248 248 243 248 257 260 262 267 268 267 278 304 313 315 316 310 304 304 307 309 310 309 304 297 289
128 133 138 140 142 142 134 129 130 130 128 128 126 122 121 131 149 167 176 175 179 184 179 171 172 173 170 169 172 176 183 192 199 201 201 203 206 209 205 200 204 212 212 209 210 208 208 217 225 229 233 229 213 203 211 214 214 220 228 233 241 253 262 265 266 268 277 285 283 280 294 309 311 312 312 308 304 305 308 310 307 302 297 293 291
144 151 149 146 149 146 128 123 130 132 131 131 129 125 120 118 124 146 162 165 169 172 166 159 162 171 174 176 177 180 184 190 195 198 200 202 203 198 193 193 194 195 197 204 211 221 236 244 246 252 257 253 238 221 221 221 211 206 216 231 235 236 247 262 269 277 293 310 318 318 316 313 312 311 307 302 301 305 308 307 303 301 301 300 298
154 150 140 138 142 136 121 120 128 131 129 132 135 132 125 115 110 118 136 149 157 161 160 158 158 167 179 183 182 180 183 189 191 192 193 193 192 190 189 193 196 197 205 213 220 235 249 254 257 260 260 264 268 255 223 204 200 206 222 236 240 244 266 277 277 284 311 325 319 313 312 310 307 304 301 302 308 312 310 306 304 306 306 303 303
124 120 123 128 129 123 119 122 128 131 135 139 141 141 138 132 125 119 118 124 135 144 152 160 166 168 174 178 177 175 176 178 178 178 178 181 183 185 188 196 207 219 228 228 230 240 246 250 257 262 265 275 285 274 227 202 208 222 231 240 307 318 313 311 315 328 327 315 305 305 313 314 311 310 312 316 316 310 305 304 308 309 307 308 314
113 119 123 124 120 118 122 129 133 140 151 154 154 158 160 156 150 142 131 124 125 128 134 147 160 167 168 169 169 168 168 169 170 173 175 178 181 187 195 203 214 225 224 215 223 249 263 264 265 272 289 299 298 329 353 356 30 15 7 8 338 318 333 9 12 348 333 322 314 321 330 326 318 315 314 312 306 302 303 309 312 311 312 318 320
119 126 124 123 124 127 134 142 143 149 159 164 166 169 167 162 160 160 155 147 141 135 131 138 151 160 164 165 166 167 167 168 170 173 177 180 184 190 194 194 197 202 199 198 214 246 276 284 291 325 6 10 36 57 38 22 28 26 6 352 330 317 330 359 5 353 347 340 330 328 326 318 309 306 306 304 304 308 313 315 314 316 321 324 320
126 129 129 132 137 143 149 152 151 154 161 168 170 164 158 160 165 167 166 161 152 144 138 138 141 147 153 158 160 161 163 166 169 173 177 182 186 185 180 180 187 191 188 190 203 220 242 279 317 0 25 23 28 43 35 12 3 340 331 333 317 304 299 295 324 346 337 326 320 316 309 302 301 301 303 307 311 316 317 316 319 324 324 319 312
129 133 140 146 146 147 149 150 150 154 160 163 161 156 157 164 168 167 166 161 148 139 139 141 139 139 145 152 155 156 158 161 166 171 174 177 183 186 187 194 207 205 195 193 200 210 215 242 321 344 351 351 340 315 310 323 310 296 297 304 306 306 302 286 314 334 327 314 306 297 288 290 300 308 312 316 319 319 321 325 327 323 318 314 312
140 144 148 144 140 140 143 144 147 155 161 161 158 158 162 166 163 159 154 149 140 136 143 149 149 147 149 153 155 158 160 158 161 171 177 182 192 199 199 206 226 236 212 195 191 190 185 181 206 291 301 307 304 307 324 329 315 308 316 321 317 319 325 325 322 319 302 282 278 282 288 300 312 317 320 322 321 323 329 329 321 315 314 317 319
132 134 131 127 128 134 140 144 149 157 161 161 159 159 159 157 153 149 146 144 142 142 148 156 158 157 158 159 158 158 158 158 163 175 183 189 199 203 201 209 236 264 255 188 150 142 172 171 159 190 228 260 286 321 333 328 327 327 323 319 317 319 325 328 321 305 280 270 280 298 309 313 316 320 323 325 326 327 324 318 313 316 320 321 322
122 125 127 129 133 139 146 152 159 162 162 162 161 159 157 157 154 150 149 151 147 144 152 162 164 162 166 168 165 163 164 168 176 180 180 184 192 194 201 220 237 249 246 180 120 180 188 162 162 227 234 245 260 280 300 310 311 303 296 302 316 324 321 314 305 293 284 286 301 309 308 311 321 328 329 327 322 317 314 313 319 324 325 323 325
125 130 137 140 144 149 154 160 166 167 164 163 160 156 153 156 158 157 157 159 159 158 161 165 163 166 172 174 169 168 172 176 181 181 176 178 187 193 205 225 236 223 203 219 219 190 174 176 211 231 247 253 248 253 268 273 269 270 281 302 314 303 290 285 282 283 285 288 294 300 305 317 328 328 323 319 316 315 319 324 326 325 325 327 329
130 139 145 148 152 158 162 162 162 164 163 158 154 154 158 162 166 167 163 163 166 164 148 125 137 159 168 165 154 159 172 185 194 192 185 186 195 201 205 215 221 204 210 236 226 196 210 226 226 227 236 241 239 238 242 246 253 263 281 302 295 282 278 279 282 289 293 288 292 307 318 324 325 321 317 317 319 324 328 326 323 326 329 330 329
144 152 156 158 161 165 162 154 154 162 165 154 148 151 157 157 156 158 159 162 165 152 126 113 128 151 161 160 153 155 171 204 217 211 203 200 201 203 199 195 199 209 221 237 244 229 226 231 234 234 234 239 248 253 250 247 255 271 278 281 282 284 288 289 289 298 307 308 319 333 331 324 321 319 319 323 327 330 328 323 324 331 333 329 329
156 162 163 164 164 157 148 148 154 155 146 136 135 141 148 151 152 153 155 162 166 143 126 123 133 144 151 161 170 174 199 226 224 218 216 204 191 189 201 206 207 209 209 213 227 233 213 220 258 277 286 307 314 292 247 225 239 307 284 281 279 280 286 286 281 294 317 335 338 333 324 319 320 320 322 326 328 326 325 325 327 330 332 332 331
174 175 172 167 157 144 139 145 150 141 131 128 131 138 148 155 158 158 159 166 171 148 132 133 139 142 149 168 185 196 213 223 217 206 205 197 188 201 218 215 203 197 194 194 208 223 74 51 3 350 349 343 337 329 285 253 269 266 264 268 267 272 288 295 290 314 348 350 334 324 318 317 321 322 321 323 324 325 326 326 325 327 332 335 329
183 174 169 159 147 141 141 146 146 145 145 146 147 156 166 165 163 168 170 172 176 163 144 142 147 150 158 177 192 196 204 211 211 209 206 201 204 220 222 199 171 164 163 154 158 309 2 11 359 344 329 307 296 293 280 273 267 252 246 250 255 263 272 262 214 32 12 347 323 320 319 317 318 317 317 318 323 326 325 322 323 329 337 334 325
170 161 160 153 141 138 144 150 151 152 153 153 156 165 168 157 154 160 159 160 174 179 167 159 159 159 161 171 178 178 185 197 208 215 214 210 215 227 228 198 157 149 150 153 177 220 287 324 329 312 295 280 268 256 248 247 251 252 243 232 230 239 244 235 228 244 265 278 286 293 301 309 312 312 315 319 322 324 322 322 327 336 337 328 321
144 146 150 152 148 145 146 152 157 153 145 146 156 164 152 142 148 160 157 158 174 177 168 169 175 171 168 174 180 182 189 198 205 217 226 230 228 226 223 212 173 155 158 174 198 209 220 236 247 257 267 268 260 250 247 243 239 241 238 225 222 232 243 246 255 266 275 283 290 292 296 305 306 305 310 316 316 316 320 325 333 336 329 321 319
142 146 147 156 163 157 152 160 172 172 161 157 163 169 155 147 156 171 173 179 192 187 174 176 181 171 167 177 185 181 182 194 203 215 239 257 263 247 221 212 201 185 180 193 209 210 208 213 222 234 253 262 257 247 249 249 238 232 236 235 234 242 250 257 269 279 282 285 289 286 284 291 296 299 307 312 311 314 322 329 331 329 321 317 320
122 145 148 153 158 156 159 172 179 169 152 149 156 167 170 167 173 186 190 192 198 188 175 177 181 171 170 186 196 187 189 207 218 220 234 253 264 264 248 224 205 196 197 209 221 215 204 203 210 218 228 244 250 248 249 249 239 235 238 240 242 251 261 270 282 290 289 289 292 289 281 280 288 298 305 307 309 318 326 328 325 320 315 315 323
98 118 137 140 134 132 146 172 166 144 145 155 166 175 184 185 182 184 186 182 180 179 176 183 195 200 198 203 209 206 211 225 230 227 232 242 248 252 256 249 227 209 203 209 225 228 210 197 199 207 211 219 233 242 246 247 242 240 243 247 252 259 269 282 294 298 295 298 305 299 285 275 279 293 302 307 313 320 322 322 320 316 313 317 329